Home   Weather   Walla Walla   Past weeks
Flag for USA

Past Weather in Walla Walla, Washington, USA — July 2018

Now
46 °F

Sunny.


Feels Like: 43 °F
Forecast: 64 / 41 °F
Wind: 6 mph from South

Location: Walla Walla Regional Airport

Current Time: Oct 15, 2019 at 10:17:19 am

Latest Report: Oct 15, 2019 at 8:53 am


Visibility: 10 mi

Pressure: 30.09 "Hg

Humidity: 63%

Dew Point: 34 °F

Location of Walla WallaLocation

July 2018 Weather in Walla Walla — Graph

°F

High & Low Weather Summary for July 2018

 TemperatureHumidityPressure
High106 °F (Jul 30, 3:53 pm)63% (Jul 1, 5:53 am)30.18 "Hg (Jul 1, 5:53 am)
Low55 °F (Jul 2, 5:53 am)5% (Jul 24, 4:53 pm)29.79 "Hg (Jul 31, 6:53 pm)
Average79 °F28%29.98 "Hg
* Reported Jul 1 12:53 am — Jul 31 11:53 pm, Walla Walla. Weather by CustomWeather, © 2019

Note: Actual official high and low records may vary slightly from our data, if they occured in-between our weather recording intervals... More about our weather records

Advertising

Walla Walla Weather History for July 1, 2018

Scroll right to see more
 ConditionsComfort  
Time TempWeatherWind HumidityBarometerVisibility
12:53 am
Sun, Jul 1
68 °FOvercast.7 mph55%30.05 "Hg10 mi
1:53 am67 °FMostly cloudy.5 mph53%30.06 "Hg10 mi
2:53 am67 °FOvercast.No wind55%30.06 "Hg10 mi
3:53 am66 °FOvercast.8 mph59%30.06 "Hg10 mi
4:53 am65 °FOvercast.10 mph61%30.07 "Hg10 mi
5:53 am64 °FOvercast.7 mph63%30.08 "Hg10 mi
7:53 am64 °FOvercast.12 mph61%30.11 "Hg10 mi
8:53 am66 °FScattered clouds.9 mph56%30.11 "Hg10 mi
9:53 am69 °FMostly cloudy.14 mph47%30.10 "Hg10 mi
10:53 am72 °FScattered clouds.13 mph43%30.09 "Hg10 mi
11:53 am75 °FSunny.10 mph37%30.08 "Hg10 mi
12:53 pm78 °FPassing clouds.10 mph32%30.05 "Hg10 mi
1:53 pm81 °FSunny.15 mph26%30.03 "Hg10 mi
2:53 pm82 °FSunny.17 mph22%30.01 "Hg10 mi
3:53 pm83 °FSunny.13 mph23%29.99 "Hg10 mi
4:53 pm82 °FSunny.14 mph22%29.98 "Hg10 mi
5:53 pm82 °FSunny.13 mph22%29.98 "Hg10 mi
6:53 pm81 °FSunny.12 mph22%29.96 "Hg10 mi
7:53 pm79 °FSunny.12 mph26%29.96 "Hg10 mi
8:53 pm72 °FClear.7 mph30%29.99 "Hg10 mi
9:53 pm67 °FClear.9 mph35%30.03 "Hg10 mi
10:53 pm66 °FClear.8 mph42%30.05 "Hg10 mi
11:53 pm63 °FClear.9 mph45%30.05 "Hg10 mi
Weather by CustomWeather, © 2019

See weather overview